• In Portugal
  • List of Countries
  • For 7 days
  • Water Temperature
  • Satellite Maps
  • Weather Map
  • Weather Widgets
  • user-avatar
    Login

    Hourly Weather Mosul

    Today, 20 November, Monday

    Time Temperature Precipitation Wind Pressure Humidity
    00:00 +17°C° 0 mm 6 mps 735 mmHg 44%
    01:00 +16°C° 0.1 mm 6 mps 735 mmHg 43%
    02:00 +16°C° 0.1 mm 6 mps 734 mmHg 43%
    03:00 +16°C° 0 mm 7 mps 734 mmHg 38%
    04:00 +16°C° 0 mm 6 mps 734 mmHg 39%
    05:00 +16°C° 0 mm 6 mps 733 mmHg 39%
    06:00 +15°C° 0 mm 5 mps 733 mmHg 40%
    07:00 +16°C° 0 mm 5 mps 733 mmHg 36%
    08:00 +17°C° 0 mm 5 mps 733 mmHg 33%
    09:00 +20°C° 0 mm 6 mps 733 mmHg 28%
    10:00 +21°C° 0 mm 6 mps 733 mmHg 26%
    11:00 +22°C° 0 mm 6 mps 733 mmHg 23%
    12:00 +24°C° 0 mm 6 mps 733 mmHg 20%
    13:00 +24°C° 0 mm 6 mps 732 mmHg 21%
    14:00 +24°C° 0 mm 6 mps 732 mmHg 23%
    15:00 +24°C° 0 mm 6 mps 731 mmHg 24%
    16:00 +23°C° 0 mm 5 mps 731 mmHg 26%
    17:00 +22°C° 0 mm 5 mps 731 mmHg 29%
    18:00 +21°C° 0 mm 4 mps 731 mmHg 32%
    19:00 +21°C° 0.1 mm 5 mps 731 mmHg 34%
    20:00 +21°C° 0.1 mm 5 mps 731 mmHg 37%
    21:00 +20°C° 0.1 mm 6 mps 730 mmHg 39%
    22:00 +20°C° 0.1 mm 6 mps 730 mmHg 42%
    23:00 +19°C° 0.1 mm 6 mps 730 mmHg 44%

    Tomorrow, 21 November, Tuesday

    Time Temperature Precipitation Wind Pressure Humidity
    00:00 +19°C° 0.1 mm 6 mps 730 mmHg 46%
    01:00 +17°C° 0.5 mm 6 mps 729 mmHg 49%
    02:00 +17°C° 0.5 mm 6 mps 729 mmHg 52%
    03:00 +17°C° 0.5 mm 6 mps 729 mmHg 55%
    04:00 +16°C° 1.1 mm 6 mps 729 mmHg 59%
    05:00 +16°C° 1.1 mm 6 mps 728 mmHg 63%
    06:00 +15°C° 1.1 mm 6 mps 728 mmHg 68%
    07:00 +16°C° 0.9 mm 6 mps 728 mmHg 65%
    08:00 +17°C° 0.9 mm 7 mps 728 mmHg 63%
    09:00 +17°C° 0.9 mm 7 mps 729 mmHg 61%
    10:00 +18°C° 0.4 mm 7 mps 729 mmHg 57%
    11:00 +20°C° 0.4 mm 7 mps 729 mmHg 53%
    12:00 +21°C° 0.4 mm 7 mps 729 mmHg 50%
    13:00 +22°C° 0.5 mm 6 mps 728 mmHg 47%
    14:00 +22°C° 0.5 mm 6 mps 728 mmHg 43%
    15:00 +22°C° 0.5 mm 5 mps 728 mmHg 40%
    16:00 +21°C° 0.1 mm 5 mps 728 mmHg 42%
    17:00 +20°C° 0.1 mm 4 mps 728 mmHg 45%
    18:00 +19°C° 0.1 mm 4 mps 728 mmHg 47%
    19:00 +19°C° 0 mm 4 mps 728 mmHg 50%
    20:00 +18°C° 0 mm 4 mps 728 mmHg 52%
    21:00 +18°C° 0 mm 4 mps 728 mmHg 55%
    22:00 +18°C° 0.6 mm 4 mps 728 mmHg 55%
    23:00 +17°C° 0.6 mm 4 mps 728 mmHg 56%

    Day after tomorrow, 22 November, Wednesday

    Time Temperature Precipitation Wind Pressure Humidity
    00:00 +16°C° 0.6 mm 5 mps 728 mmHg 57%
    01:00 +16°C° 0.4 mm 5 mps 728 mmHg 59%
    02:00 +15°C° 0.4 mm 5 mps 728 mmHg 60%
    03:00 +15°C° 0.4 mm 5 mps 728 mmHg 62%
    04:00 +14°C° 0.1 mm 4 mps 728 mmHg 61%
    05:00 +14°C° 0.1 mm 3 mps 728 mmHg 60%
    06:00 +15°C° 0.1 mm 2 mps 728 mmHg 60%
    07:00 +14°C° 0 mm 3 mps 729 mmHg 55%
    08:00 +14°C° 0 mm 3 mps 729 mmHg 50%
    09:00 +14°C° 0 mm 4 mps 729 mmHg 46%
    10:00 +15°C° 0 mm 4 mps 730 mmHg 41%
    11:00 +17°C° 0 mm 4 mps 730 mmHg 35%
    12:00 +16°C° 0 mm 5 mps 730 mmHg 30%
    13:00 +16°C° 0 mm 5 mps 730 mmHg 28%
    14:00 +16°C° 0 mm 5 mps 730 mmHg 26%
    15:00 +17°C° 0 mm 5 mps 730 mmHg 24%
    16:00 +17°C° 0 mm 4 mps 730 mmHg 25%
    17:00 +15°C° 0 mm 4 mps 730 mmHg 27%
    18:00 +14°C° 0 mm 3 mps 731 mmHg 29%
    19:00 +14°C° 0 mm 3 mps 731 mmHg 30%
    20:00 +13°C° 0 mm 3 mps 731 mmHg 31%
    21:00 +13°C° 0 mm 3 mps 731 mmHg 32%
    22:00 +12°C° 0 mm 3 mps 732 mmHg 31%
    23:00 +12°C° 0 mm 3 mps 732 mmHg 31%

    23 November, Thursday

    Time Temperature Precipitation Wind Pressure Humidity
    00:00 +11°C° 0 mm 3 mps 732 mmHg 31%
    01:00 +11°C° 0 mm 3 mps 732 mmHg 32%
    02:00 +10°C° 0 mm 2 mps 732 mmHg 33%
    03:00 +10°C° 0 mm 2 mps 732 mmHg 34%
    04:00 +9°C° 0 mm 2 mps 732 mmHg 37%
    05:00 +9°C° 0 mm 2 mps 733 mmHg 40%
    06:00 +9°C° 0 mm 2 mps 733 mmHg 43%
    07:00 +9°C° 0 mm 2 mps 733 mmHg 41%
    08:00 +10°C° 0 mm 2 mps 734 mmHg 40%
    09:00 +12°C° 0 mm 2 mps 734 mmHg 38%
    10:00 +13°C° 0 mm 2 mps 734 mmHg 35%
    11:00 +13°C° 0 mm 2 mps 734 mmHg 32%
    12:00 +14°C° 0 mm 2 mps 734 mmHg 28%
    13:00 +15°C° 0 mm 2 mps 734 mmHg 26%
    14:00 +14°C° 0 mm 3 mps 734 mmHg 25%
    15:00 +14°C° 0 mm 3 mps 733 mmHg 23%
    16:00 +14°C° 0 mm 3 mps 733 mmHg 25%
    17:00 +14°C° 0 mm 2 mps 734 mmHg 27%
    18:00 +14°C° 0 mm 2 mps 734 mmHg 29%
    19:00 +13°C° 0 mm 2 mps 734 mmHg 30%
    20:00 +13°C° 0 mm 2 mps 734 mmHg 32%
    21:00 +13°C° 0 mm 1 mps 734 mmHg 33%
    22:00 +12°C° 0 mm 1 mps 734 mmHg 34%
    23:00 +12°C° 0 mm 1 mps 734 mmHg 35%

    24 November, Friday

    Time Temperature Precipitation Wind Pressure Humidity
    00:00 +11°C° 0 mm 1 mps 734 mmHg 36%
    01:00 +11°C° 0 mm 1 mps 734 mmHg 36%
    02:00 +11°C° 0 mm 1 mps 734 mmHg 36%
    03:00 +11°C° 0 mm 1 mps 734 mmHg 36%
    04:00 +11°C° 0 mm 1 mps 734 mmHg 36%
    05:00 +11°C° 0 mm 1 mps 734 mmHg 36%
    06:00 +10°C° 0 mm 1 mps 734 mmHg 36%
    07:00 +10°C° 0.2 mm 1 mps 734 mmHg 38%
    08:00 +10°C° 0.2 mm 2 mps 735 mmHg 41%
    09:00 +10°C° 0.2 mm 3 mps 735 mmHg 43%
    10:00 +10°C° 0.1 mm 3 mps 735 mmHg 42%
    11:00 +10°C° 0.1 mm 3 mps 735 mmHg 41%
    12:00 +11°C° 0.1 mm 3 mps 735 mmHg 41%
    13:00 +12°C° 0 mm 2 mps 735 mmHg 40%
    14:00 +12°C° 0 mm 2 mps 735 mmHg 38%
    15:00 +13°C° 0 mm 1 mps 735 mmHg 37%
    16:00 +12°C° 0 mm 2 mps 735 mmHg 40%
    17:00 +12°C° 0 mm 2 mps 736 mmHg 42%
    18:00 +10°C° 0 mm 2 mps 736 mmHg 45%
    19:00 +10°C° 0 mm 2 mps 736 mmHg 47%
    20:00 +10°C° 0 mm 2 mps 737 mmHg 49%
    21:00 +9°C° 0 mm 3 mps 737 mmHg 52%
    22:00 +9°C° 0 mm 2 mps 737 mmHg 53%
    23:00 +9°C° 0 mm 2 mps 737 mmHg 55%

    25 November, Saturday

    Time Temperature Precipitation Wind Pressure Humidity
    00:00 +8°C° 0 mm 2 mps 738 mmHg 56%
    01:00 +8°C° 0 mm 2 mps 738 mmHg 57%
    02:00 +8°C° 0 mm 2 mps 738 mmHg 57%
    03:00 +8°C° 0 mm 2 mps 738 mmHg 58%
    04:00 +7°C° 0 mm 2 mps 738 mmHg 58%
    05:00 +7°C° 0 mm 2 mps 738 mmHg 58%
    06:00 +7°C° 0 mm 2 mps 738 mmHg 58%
    07:00 +8°C° 0 mm 2 mps 739 mmHg 55%
    08:00 +8°C° 0 mm 2 mps 739 mmHg 51%
    09:00 +9°C° 0 mm 2 mps 739 mmHg 48%
    10:00 +10°C° 0 mm 2 mps 739 mmHg 44%
    11:00 +12°C° 0 mm 2 mps 739 mmHg 40%
    12:00 +12°C° 0 mm 2 mps 739 mmHg 36%
    13:00 +13°C° 0 mm 2 mps 738 mmHg 34%
    14:00 +13°C° 0 mm 2 mps 738 mmHg 33%
    15:00 +13°C° 0 mm 2 mps 738 mmHg 31%
    16:00 +13°C° 0 mm 2 mps 738 mmHg 33%
    17:00 +12°C° 0 mm 2 mps 738 mmHg 35%
    18:00 +12°C° 0 mm 2 mps 738 mmHg 37%
    19:00 +12°C° 0 mm 2 mps 738 mmHg 39%
    20:00 +10°C° 0 mm 2 mps 738 mmHg 40%
    21:00 +10°C° 0 mm 2 mps 739 mmHg 42%
    22:00 +9°C° 0 mm 2 mps 739 mmHg 43%
    23:00 +9°C° 0 mm 2 mps 738 mmHg 44%
    Show more